Lid_Strength_Index
-0 0 0 0 0 0 0 0 -1 -1 -1 -1 -1 0 1 1 2 -0 -0 -0 -0 0
0 0 0 -0 -0 0 -1 -0 -1 -1 -0 -0 1 3 3 2 1 -0 -1 -0 -0 1
0 -0 -0 -0 0 -0 -0 -1 -0 -0 -0 2 3 4 3 3 -1 -0 0 0 1 1
0 0 -0 0 -0 -0 -0 -0 -0 1 2 3 4 4 3 2 -0 1 1 0 1 2
0 0 0 0 0 -0 -0 -0 1 2 3 5 4 4 4 2 1 1 1 1 1 2
1 1 1 0 -0 -0 -0 1 2 3 6 5 5 5 4 1 1 1 1 2 3 3
1 1 1 0 0 0 -0 2 3 6 7 7 7 6 2 1 1 1 2 3 3 4
1 0 0 0 0 0 1 3 5 8 9 8 7 5 2 1 1 2 3 4 4 4
1 1 1 0 1 1 3 6 8 9 9 8 7 5 3 2 2 3 4 4 5 4
1 1 1 1 1 2 5 8 9 10 9 8 5 5 3 3 3 4 4 4 4 5
1 1 1 1 1 3 6 9 10 10 8 8 5 5 4 4 3 4 4 4 4 4
1 1 1 1 2 4 7 10 10 10 9 8 4 6 5 5 3 4 5 4 4 4
1 1 1 1 2 5 7 10 9 9 8 8 4 7 7 5 4 5 6 5 5 7
1 1 1 1 2 4 8 10 11 10 8 5 4 6 8 8 5 6 6 6 6 6